Regional Weather Roundup
Issued by NWS

Home | Current Version | Previous Version | Text Only | Print | Product List | Glossary On
Versions: 1 2 3 4 5 6 7 8 9 10 11 12 13 14 15 16 17 18 19 20 21 22 23 24 25 26 27 28 29 30 31 32 33 34 35 36 37 38 39 40 41 42 43 44 45 46 47 48 49 50
000
ASUS45 KCYS 240710
RWRWY

WYOMING REGIONAL WEATHER ROUNDUP
NATIONAL WEATHER SERVICE CHEYENNE WY
1200 AM MST FRI NOV 24 2017

NOTE:  "FAIR" INDICATES FEW OR NO CLOUDS BELOW 12,000 FEET
WITH NO SIGNIFICANT WEATHER AND/OR OBSTRUCTIONS TO VISIBILITY.

WYZ001-240800-
YELLOWSTONE NATIONAL PARK

CITY           SKY/WX    TMP DP  RH WIND       PRES   REMARKS
LK YELLOWSTONE   N/A     40  34  79 SW10G21   29.92F WCI  33
W YELLOWSTONE  NOT AVBL

$$
WYZ002>013-054>058-071-098>099-240800-
NORTHERN WYOMING

CITY           SKY/WX    TMP DP  RH WIND       PRES   REMARKS
JACKSON        NOT AVBL
CODY           FAIR      52  37  56 SW18      29.74F
GREYBULL       FAIR      38  33  82 MISG      29.71S
WORLAND        FAIR      45  34  65 SW8       29.71F
SHERIDAN       FAIR      63  28  26 W10G25    29.58F
BUFFALO        FAIR      63  22  20 MISG      29.67F
GILLETTE       FAIR      57  30  35 SW18      29.65F
HULETT         FAIR      54  32  43 SW10      29.65F
NEWCASTLE      FAIR      43  32  65 N8        29.71F

$$
WYZ014>020-022>026-101>103-240800-
CENTRAL WYOMING

CITY           SKY/WX    TMP DP  RH WIND       PRES   REMARKS
BIG PINEY      CLOUDY    44  33  65 VRB6      30.02F
PINEDALE       CLOUDY    37  36  93 E3        30.04F
DUBOIS         CLOUDY    41  32  70 NW12G20   29.90F
LANDER         FAIR      56  32  40 W8G20     29.86F
RIVERTON       FAIR      49  34  56 W15       29.86F
CASPER         FAIR      53  35  50 SW26G35   29.82F
DOUGLAS        FAIR      51  36  56 W14       29.80F

$$
WYZ021-027>030-104>119-240800-
SOUTHERN WYOMING

CITY           SKY/WX    TMP DP  RH WIND       PRES   REMARKS
EVANSTON       FAIR      44  32  62 SW17      30.08F
KEMMERER       FAIR      37  34  87 W10       30.08F WCI  30
FORT BRIDGER   FAIR      46  31  56 SW16      30.10F
ROCK SPRINGS   FAIR      42  35  76 S9        30.07F
DIXON          FAIR      43  32  64 W8        30.12F
RAWLINS        LGT RAIN  46  33  60 W31G40    29.99F
SARATOGA       PTSUNNY   45  32  61 S9        30.07F
LARAMIE        CLOUDY    48  31  51 W5        30.03S
CHEYENNE       FAIR      54  31  41 SW8       29.90F
TORRINGTON     FAIR      63  36  36 W23G35    29.75F
PINE BLUFFS    FAIR      57  28  33 W23G31    29.86F

$$



USA.gov is the U.S. government's official web portal to all federal, state and local government web resources and services.